Regional Weather Roundup
Issued by NWS

Home | Current Version | Previous Version | Graphics & Text | Print | Product List | Glossary On
Versions: 1 2 3 4 5 6 7 8 9 10 11 12 13 14 15 16 17 18 19 20 21 22 23 24 25
000
ASUS45 KSLC 162310
RWRUT

UTAH REGIONAL WEATHER ROUNDUP
NATIONAL WEATHER SERVICE SALT LAKE CITY UT
400 PM MST FRI FEB 16 2018

UTZ001>011-023>025-170000-

NORTHERN UTAH

CITY           SKY/WX    TMP DP  RH WIND       PRES   REMARKS
BRIGHAM CITY   CLOUDY    37   9  30 CALM      30.17F
HILL AFB       PTSUNNY   37   9  31 W3        30.14F
LOGAN          CLOUDY    38  14  37 SE7       30.15F WCI  33
OGDEN          CLOUDY    38  10  31 CALM      30.15F
SALT LAKE CITY PTSUNNY   45  12  26 CALM      30.14F
TOOELE VALLEY  MOSUNNY   41  16  36 N13       30.14S
WENDOVER       PTSUNNY   39   9  29 SE3       30.14F
HEBER CITY       N/A     41   3  20 SW13      30.07F
WEST JORDAN    MOSUNNY   42  15  34 SE5       30.14S

$$

UTZ011>015-024>027-170000-

CENTRAL/NORTHEAST UTAH

CITY           SKY/WX    TMP DP  RH WIND       PRES   REMARKS
PROVO AIRPORT  SUNNY     41  14  33 VRB5      30.15F
MOAB/CANYONLAN SUNNY     43  12  28 N9        30.13F
DELTA          SUNNY     41   9  26 CALM      30.14F
PRICE          SUNNY     37   4  25 VRB3      30.10F
ROOSEVELT      SUNNY     41   5  22 S7        30.06F
VERNAL         SUNNY     40   3  21 S8        30.04F WCI  34

$$

UTZ013>016-019>022-027-170000-

SOUTHERN UTAH

CITY           SKY/WX    TMP DP  RH WIND       PRES   REMARKS
BRYCE CANYON   SUNNY     44   1  16 NW6       30.12F
CEDAR CITY     SUNNY     48   8  19 VRB3      30.11F
MILFORD        SUNNY     47   7  19 S9        30.10F
ST GEORGE      CLEAR     51  23  33 CALM      30.16F
HANKSVILLE     SUNNY     41   5  22 S3        30.16F
BLANDING         N/A     41  15  34 S5        30.21F

$$

REGIONAL REPORTS     COLORADO/ARIZONA

CITY           SKY/WX    TMP DP  RH WIND       PRES   REMARKS
CRAIG, CO      MOSUNNY   29  12  49 E5        30.05F WCI  24
GRAND JUNCTION SUNNY     38  19  46 NW7       30.13F WCI  33
RIFLE, CO      MOSUNNY   36  19  50 W7        30.10F WCI  30
MONTROSE, CO   PTSUNNY   40  18  41 NW3       30.14F
CORTEZ, CO     CLOUDY    43  18  36 SW8       30.13F
COLORADO CITY    N/A     48  21  34 CALM      30.18S
PAGE, AZ       MOSUNNY   45  16  31 N6        30.15F
GRAND CANYON   MOSUNNY   48  22  35 SW5       30.13S
KINGMAN, AZ    SUNNY     58  24  27 N6        30.12F
FLAGSTAFF, AZ  SUNNY     44  28  53 SW12      30.13F

$$

REGIONAL REPORTS    NEVADA/IDAHO/WYOMING

CITY           SKY/WX    TMP DP  RH WIND       PRES   REMARKS
LAS VEGAS, NV  MOSUNNY   57   9  14 CALM      30.15F
ELY, NY        SUNNY     48   4  16 W14       30.12F
ELKO, NV       CLOUDY    42  11  28 SW8       30.16S
POCATELLO, ID  CLOUDY    32  25  75 S15       30.11F WCI  22
BURLEY, ID     CLOUDY    36  16  44 W12G22    30.11F WCI  28
FORT BRIDGER,  MOCLDY    30   8  39 W30G36    30.05R WCI  15
EVANSTON, WY   CLOUDY    28   8  43 W17G25    30.06R WCI  16
ROCK SPRINGS,  CLOUDY    31   5  33 W26G35    29.97F WCI  17

$$




USA.gov is the U.S. government's official web portal to all federal, state and local government web resources and services.